TimePST,TemperatureF,Dew PointF,Humidity,Sea Level PressureIn,VisibilityMPH,Wind Direction,Wind SpeedMPH,Gust SpeedMPH,PrecipitationIn,Events,Conditions,WindDirDegrees,DateUTC
12:22 AM,10.4,8.6,92,30.19,8.0,SSE,8.1,-,N/A,,Scattered Clouds,150,2013-01-12 08:22:00
12:31 AM,12.2,10.4,92,30.19,7.0,SSE,6.9,-,N/A,,Mostly Cloudy,150,2013-01-12 08:31:00
12:53 AM,12.0,10.0,92,30.30,3.0,South,5.8,-,N/A,,Overcast,170,2013-01-12 08:53:00
1:46 AM,12.2,10.4,92,30.20,1.8,Calm,Calm,-,N/A,,Overcast,0,2013-01-12 09:46:00
1:53 AM,12.0,10.9,95,30.30,0.8,Calm,Calm,-,N/A,,Mist,0,2013-01-12 09:53:00
2:53 AM,12.9,12.0,96,30.30,0.2,Calm,Calm,-,N/A,Fog,Light Freezing Fog,0,2013-01-12 10:53:00
3:46 AM,12.2,10.4,92,30.19,1.2,Calm,Calm,-,N/A,,Overcast,0,2013-01-12 11:46:00
4:05 AM,12.2,12.2,100,30.18,0.8,Calm,Calm,-,N/A,,Mist,0,2013-01-12 12:05:00
4:21 AM,14.0,12.2,93,30.18,1.0,NW,3.5,-,N/A,,Mist,320,2013-01-12 12:21:00
4:29 AM,14.0,12.2,93,30.18,0.8,NW,4.6,-,N/A,,Mist,320,2013-01-12 12:29:00
4:48 AM,14.0,12.2,93,30.19,1.0,Calm,Calm,-,N/A,,Mist,0,2013-01-12 12:48:00
4:53 AM,15.1,12.9,91,30.30,0.8,Calm,Calm,-,N/A,,Mist,0,2013-01-12 12:53:00
5:10 AM,15.8,12.2,86,30.19,1.0,Calm,Calm,-,N/A,,Mist,0,2013-01-12 13:10:00
5:25 AM,15.8,14.0,93,30.19,3.0,NW,4.6,-,N/A,,Overcast,310,2013-01-12 13:25:00
5:42 AM,15.8,14.0,93,30.19,5.0,NNW,4.6,-,N/A,,Overcast,330,2013-01-12 13:42:00
5:53 AM,16.0,14.0,92,30.32,7.0,NNW,3.5,-,N/A,,Overcast,340,2013-01-12 13:53:00
6:23 AM,15.8,14.0,93,30.20,8.0,NW,4.6,-,N/A,,Overcast,310,2013-01-12 14:23:00
6:53 AM,16.0,14.0,92,30.32,10.0,NNW,3.5,-,N/A,,Overcast,330,2013-01-12 14:53:00
7:37 AM,15.8,14.0,93,30.21,10.0,NW,4.6,-,N/A,,Overcast,310,2013-01-12 15:37:00
7:53 AM,16.0,12.9,88,30.33,10.0,NW,3.5,-,N/A,,Overcast,310,2013-01-12 15:53:00
8:53 AM,16.0,15.1,96,30.34,10.0,Calm,Calm,-,N/A,,Overcast,0,2013-01-12 16:53:00
9:53 AM,16.0,14.0,92,30.35,10.0,NNW,3.5,-,N/A,,Overcast,330,2013-01-12 17:53:00
10:53 AM,17.1,16.0,96,30.36,10.0,NNE,3.5,-,N/A,,Overcast,30,2013-01-12 18:53:00
11:53 AM,18.0,16.0,92,30.36,10.0,NE,4.6,-,N/A,,Overcast,40,2013-01-12 19:53:00
12:15 PM,19.4,19.4,100,30.23,10.0,Calm,Calm,-,N/A,,Overcast,0,2013-01-12 20:15:00
12:53 PM,19.0,16.0,88,30.35,10.0,Calm,Calm,-,N/A,,Overcast,0,2013-01-12 20:53:00
1:01 PM,19.4,15.8,86,30.24,10.0,Calm,Calm,-,N/A,,Overcast,0,2013-01-12 21:01:00
1:25 PM,19.4,15.8,86,30.24,10.0,NNW,3.5,-,N/A,,Scattered Clouds,340,2013-01-12 21:25:00
1:53 PM,19.0,15.1,85,30.36,10.0,Calm,Calm,-,N/A,,Scattered Clouds,0,2013-01-12 21:53:00
2:53 PM,18.0,14.0,84,30.35,10.0,Calm,Calm,-,N/A,,Clear,0,2013-01-12 22:53:00
3:53 PM,14.0,10.0,84,30.37,10.0,WSW,5.8,-,N/A,,Clear,250,2013-01-12 23:53:00
5:53 PM,7.0,5.0,92,30.39,7.0,Calm,Calm,-,N/A,,Clear,0,2013-01-13 01:53:00
6:53 PM,-0.0,-2.9,88,30.41,10.0,NW,6.9,-,N/A,,Clear,320,2013-01-13 02:53:00
7:53 PM,1.0,-2.0,87,30.40,9.0,Calm,Calm,-,N/A,,Clear,0,2013-01-13 03:53:00
9:53 PM,5.0,1.9,87,30.40,10.0,Calm,Calm,-,N/A,,Clear,0,2013-01-13 05:53:00
10:53 PM,7.0,3.9,87,30.39,10.0,Calm,Calm,-,N/A,,Partly Cloudy,0,2013-01-13 06:53:00
11:53 PM,7.0,3.0,84,30.40,10.0,NW,4.6,-,N/A,,Mostly Cloudy,320,2013-01-13 07:53:00